TIMED

Last updated on Mon Sep 21 2026 00:02:52 GMT+0000 (Coordinated Universal Time)

1 26998U 01055B 26263.47594697 .00000773 00000+0 73417-4 0 9997 2 26998 74.0680 43.1253 0001707 231.4793 128.6238 14.95464709345060
UTC large
Height (km)
Speed (km/s)
/
Latitude / Longitude
Inclination (degrees)
Orbital Period (minutes)
Azimuth
Elevation
Range (km)
Doppler Factor

Next 0 passes for location: London (51.5072 / 0.1276)

No passes found over London.
TIMED